Weather History for KPIR - January, 2013

Change the Weather History Date:

Thursday, January 3, 2013

  Actual Average Record
Temperature  
Mean Temperature 23 °F 20 °F  
Max Temperature 28 °F 29 °F 62 °F (1962)
Min Temperature 18 °F 10 °F -24 °F (1968)
Degree Days  
Heating Degree Days 42 45  
Month to date heating degree days 129 135  
Since 1 July heating degree days 3057 3097  
Cooling Degree Days 0 0  
Month to date cooling degree days 0 0  
Year to date cooling degree days 0 0  
Moisture  
Dew Point 16 °F    
Average Humidity 78    
Maximum Humidity 92    
Minimum Humidity 63    
Precipitation  
Precipitation T in 0.02 in 0.67 in (1997)
Month to date precipitation 0.01 0.05  
Year to date precipitation 0.01 0.05  
Snow  
Snow T in 0.20 in 9.70 in (1949)
Month to date snowfall 0.2 0.5  
Since 1 July snowfall 12.1 11.7  
Snow Depth 2.00 in    
Sea Level Pressure  
Sea Level Pressure 30.30 in    
Wind  
Wind Speed 9 mph (West)    
Max Wind Speed 20 mph    
Max Gust Speed 23 mph    
Visibility 10 miles    
Events      
T = Trace of Precipitation, MM = Missing Value Source: NWS Daily Summary

Daily Weather History Graph

Daily Weather History Graph

Search for Another Location

Airport or City:

Trip Planner

Search our weather history database for the weather conditions in past years. The results will help you decide how hot, cold, wet, or windy it might be!

Date:

Astronomy

Jan. 03, 2013 Rise Set
Actual Time 8:17 AM CST 5:14 PM CST
Civil Twilight 7:44 AM CST 5:47 PM CST
Nautical Twilight 7:07 AM CST 6:24 PM CST
Astronomical Twilight 6:32 AM CST 6:59 PM CST
Moon No Moon Rise 11:14 AM CST (1/3)
Length of Visible Light 10h 03m
Length of Day
8h 57m
Waning Gibbous, 65% of the Moon is Illuminated
Jan 3
Waning Gibbous
Jan 4
Last Quarter
Jan 11
New
Jan 18
First Quarter
Jan 26
Full

Hourly Weather History & Observations

Time (CST) Temp. Windchill Dew Point Humidity Pressure Visibility Wind Dir Wind Speed Gust Speed Precip Events Conditions
12:14 AM 21.2 °F 9.5 °F 17.6 °F 86% 30.29 in 10.0 mi North 11.5 mph - 0.00 in   Overcast
12:53 AM 21.0 °F 9.3 °F 18.0 °F 88% 30.36 in 10.0 mi North 11.5 mph - 0.00 in   Overcast
2:41 AM 21.2 °F 12.6 °F 17.6 °F 86% 30.30 in 8.0 mi NNW 6.9 mph - N/A   Overcast
2:53 AM 21.0 °F 11.4 °F 18.0 °F 88% 30.38 in 9.0 mi NNW 8.1 mph - N/A   Overcast
3:53 AM 21.0 °F 16.2 °F 19.0 °F 92% 30.37 in 7.0 mi NW 3.5 mph - N/A   Overcast
4:22 AM 21.2 °F - 19.4 °F 93% 30.30 in 7.0 mi Calm Calm - N/A   Overcast
4:53 AM 21.0 °F 16.2 °F 18.0 °F 88% 30.38 in 9.0 mi North 3.5 mph - N/A   Overcast
5:21 AM 21.2 °F 16.4 °F 17.6 °F 86% 30.30 in 10.0 mi North 3.5 mph - N/A   Overcast
5:53 AM 21.0 °F 16.2 °F 18.0 °F 88% 30.37 in 8.0 mi NNW 3.5 mph - N/A   Overcast
6:14 AM 21.2 °F 12.6 °F 17.6 °F 86% 30.30 in 10.0 mi NW 6.9 mph - N/A   Overcast
6:53 AM 19.9 °F 9.3 °F 12.9 °F 74% 30.38 in 10.0 mi WNW 9.2 mph - N/A   Overcast
7:53 AM 21.9 °F 8.2 °F 12.9 °F 68% 30.36 in 10.0 mi WNW 16.1 mph - N/A   Mostly Cloudy
8:53 AM 21.0 °F 10.6 °F 14.0 °F 74% 30.35 in 10.0 mi West 9.2 mph - N/A   Overcast
9:53 AM 21.0 °F 12.4 °F 15.1 °F 78% 30.34 in 10.0 mi West 6.9 mph - N/A   Overcast
10:53 AM 21.9 °F 13.4 °F 16.0 °F 78% 30.35 in 10.0 mi WSW 6.9 mph - N/A   Mostly Cloudy
11:13 AM 23.0 °F 13.9 °F 17.6 °F 80% 30.27 in 10.0 mi WSW 8.1 mph - N/A   Partly Cloudy
11:53 AM 24.1 °F 12.5 °F 16.0 °F 71% 30.33 in 10.0 mi West 12.7 mph - N/A   Clear
12:53 PM 25.0 °F 12.2 °F 17.1 °F 72% 30.29 in 10.0 mi WSW 16.1 mph 21.9 mph N/A   Clear
1:53 PM 26.1 °F 15.0 °F 17.1 °F 69% 30.27 in 10.0 mi West 12.7 mph - N/A   Clear
2:53 PM 27.0 °F 18.7 °F 18.0 °F 69% 30.26 in 10.0 mi West 8.1 mph - N/A   Clear
3:53 PM 28.0 °F 18.6 °F 18.0 °F 66% 30.26 in 10.0 mi West 10.4 mph - N/A   Clear
4:53 PM 26.1 °F 18.4 °F 17.1 °F 69% 30.25 in 10.0 mi SW 6.9 mph - N/A   Clear
5:53 PM 24.1 °F 13.7 °F 16.0 °F 71% 30.25 in 10.0 mi SW 10.4 mph - N/A   Clear
6:53 PM 21.0 °F 13.4 °F 14.0 °F 74% 30.25 in 10.0 mi SW 5.8 mph - N/A   Clear
7:53 PM 19.9 °F 12.1 °F 12.9 °F 74% 30.24 in 10.0 mi WSW 5.8 mph - N/A   Clear
8:53 PM 19.9 °F 9.3 °F 12.0 °F 71% 30.22 in 10.0 mi WSW 9.2 mph - N/A   Clear
9:53 PM 19.9 °F 8.6 °F 12.0 °F 71% 30.21 in 10.0 mi WSW 10.4 mph - N/A   Clear
10:53 PM 19.9 °F 8.6 °F 10.9 °F 68% 30.19 in 10.0 mi WSW 10.4 mph - N/A   Clear
11:53 PM 18.0 °F 9.8 °F 10.9 °F 74% 30.19 in 10.0 mi SW 5.8 mph - N/A   Clear